This is the latest recevied weather packets stored in our database for station/object WD8INF-9. If no packets are shown the sender has not sent any weather packets the latest 10 day(s).
| Time | Temp. | Humidity | Pressure | Rain* | Wind** | Luminosity | Snow |
|---|---|---|---|---|---|---|---|
| 1777827291 | 21.67° C | - | 1016.7 hPa | 0 mm | - | - | - |
| 1777826991 | 22.22° C | - | 1016.8 hPa | 0 mm | - | - | - |
| 1777826691 | 20.56° C | - | 1016.7 hPa | 0 mm | - | - | - |
| 1777826390 | 20° C | - | 1016.8 hPa | 0 mm | - | - | - |
| 1777826090 | 20.56° C | - | 1017 hPa | 0 mm | - | - | - |
| 1777825790 | 19.44° C | - | 1017.1 hPa | 0 mm | - | - | - |
| 1777825490 | 21.11° C | - | 1017.1 hPa | 0 mm | - | - | - |
| 1777825189 | 21.11° C | - | 1017.3 hPa | 0 mm | - | - | - |
| 1777824589 | 22.22° C | - | 1017.3 hPa | 0 mm | - | - | - |
| 1777824289 | 21.11° C | - | 1017.6 hPa | 0 mm | - | - | - |
| 1777823988 | 18.89° C | - | 1017.7 hPa | 0 mm | - | - | - |
| 1777823688 | 20.56° C | - | 1017.6 hPa | 0 mm | - | - | - |
| 1777823388 | 20.56° C | - | 1017.5 hPa | 0 mm | - | - | - |
| 1777823087 | 20.56° C | - | 1017.7 hPa | 0 mm | - | - | - |
| 1777822787 | 20° C | - | 1017.8 hPa | 0 mm | - | - | - |
| 1777822487 | 18.89° C | - | 1017.8 hPa | 0 mm | - | - | - |
| 1777822187 | 20° C | - | 1017.8 hPa | 0 mm | - | - | - |
| 1777821886 | 20° C | - | 1017.8 hPa | 0 mm | - | - | - |
| 1777821586 | 20.56° C | - | 1017.6 hPa | 0 mm | - | - | - |
| 1777821286 | 20.56° C | - | 1017.7 hPa | 0 mm | - | - | - |
| 1777820986 | 21.11° C | - | 1017.8 hPa | 0 mm | - | - | - |
| 1777820685 | 20° C | - | 1017.3 hPa | 0 mm | - | - | - |
| 1777820385 | 18.33° C | - | 1017.7 hPa | 0 mm | - | - | - |
| 1777820085 | 17.78° C | - | 1017.9 hPa | 0 mm | - | - | - |
| 1777819785 | 19.44° C | - | 1017.8 hPa | 0 mm | - | - | - |
* Rain since midnight (hover to see other rain measurements)
** Current wind speed in m/s (hover to see current wind gust speed)